Regional Weather Roundup
Issued by NWS

Home | Current Version | Previous Version | Text Only | Print | Product List | Glossary On
Versions: 1 2 3 4 5 6 7 8 9 10 11 12 13 14 15 16 17 18 19 20 21 22 23 24 25 26 27
000
ASUS42 KFFC 030903
RWRGA
WEATHER ROUNDUP FOR GEORGIA
NATIONAL WEATHER SERVICE PEACHTREE CITY GA
500 AM EDT TUE MAY 03 2016

NOTE: "FAIR" INDICATES FEW OR NO CLOUDS BELOW 12,000 FEET WITH NO
SIGNIFICANT WEATHER AND/OR OBSTRUCTIONS TO VISIBILITY.

* = USE WITH CAUTION. THE STATIONS MARKED WITH AN ASTERISK MAY NOT
REPORT WEATHER SUCH AS PRECIPITATION, FOG, OR THUNDER AND ARE NOT
QUALITY CONTROLLED BY NWS.

THE REMARK "TC" DENOTES TEMPERATURE READING IN DEGREES CELSIUS.

GAZ001>058-031000-
NORTH GEORGIA

CITY           SKY/WX    TMP DP  RH WIND       PRES   REMARKS
ATLANTA        MOCLDY    65  62  90 W8        29.89S
ATHENS         CLOUDY    66  65  96 CALM      29.88R
CHAMBLEE       CLEAR     64  64 100 W3        29.89S
PEACHTREE CITY PTCLDY    65  64  97 W5        29.90S
ROME           CLOUDY    65  63  93 SW5       29.88R
WEST ATLANTA   PTCLDY    64  61  90 SW3       29.89S
GAINESVILLE    CLOUDY    64  62  93 W7        29.90S
CARTERSVILLE   CLOUDY    65  64  97 CALM      29.89S


CITY           SKY/WX    TMP DP  RH WIND       PRES   REMARKS
DALTON*        CLOUDY    63  63 100 CALM      29.88S
CANTON*        CLOUDY    63  63 100 CALM      29.91S
BLAIRSVILLE*   DRIZZLE  N/A N/A N/A MISG      29.90S
$$

GAZ059>098-102>109-031000-
CENTRAL GEORGIA

CITY           SKY/WX    TMP DP  RH WIND       PRES   REMARKS
AUGUSTA-BUSH   CLOUDY    68  67  96 S5        29.86S
AUGUSTA-DANIEL CLOUDY    68  66  93 CALM      29.87F
COLUMBUS       CLOUDY    67  64  90 W7        29.90R
MACON          CLOUDY    68  67  96 CALM      29.88F
ROBINS AFB     CLOUDY    69  69 100 SW3       29.88


CITY           SKY/WX    TMP DP  RH WIND       PRES   REMARKS
LAGRANGE*      CLOUDY    68  68 100 W6        29.91R
SYLVANIA*      CLOUDY    72  72 100 CALM      29.88F FOG
MILLEDGEVILLE* CLOUDY    66  64  94 CALM      29.88S FOG
$$

GAZ099>101-110>166-031000-
SOUTH GEORGIA

CITY           SKY/WX    TMP DP  RH WIND       PRES   REMARKS
SAVANNAH       CLOUDY    73  70  90 SW6       29.88S
VALDOSTA       CLOUDY    70  69  97 S3        29.92S
ALMA           CLOUDY    70  69  97 S5        29.90S
ST SIMONS      CLOUDY    73  72  96 SW10      29.89S
FT STEWART     MOCLDY    72  70  94 CALM      29.87S
ALBANY         CLOUDY    71  69  93 S3        29.91F
HUNTER AFB     CLOUDY    73  73 100 SW3       29.86
MOODY AFB      CLOUDY    71  68  90 S6        29.90
BRUNSWICK      CLOUDY    77  72  83 SW8       29.91R


CITY           SKY/WX    TMP DP  RH WIND       PRES   REMARKS
BAINBRIDGE*    CLEAR     72  70  94 SW5       29.90S
MOULTRIE*      CLOUDY    70  68  94 CALM      29.91F
VIDALIA*       CLOUDY    70  68  94 CALM      29.89S FOG
WAYCROSS*      CLOUDY    68  68  99 W5        29.91S
DOUGLAS*       CLOUDY    72  70  94 SW5       29.92S
$$




USA.gov is the U.S. government's official web portal to all federal, state and local government web resources and services.